Regional Weather Roundup
Issued by NWS

Home | Current Version | Previous Version | Text Only | Print | Product List | Glossary On
Versions: 1 2 3 4 5 6 7 8 9 10 11 12 13 14 15 16 17 18 19 20 21 22 23 24 25 26 27 28 29 30 31 32 33 34 35 36 37 38 39 40 41 42 43 44 45 46 47 48 49 50
000
ASUS45 KPSR 301510
RWRAZ

ARIZONA HOURLY REGIONAL WEATHER ROUNDUP
NATIONAL WEATHER SERVICE PHOENIX AZ
800 AM MST SUN APR 30 2017

NOTE: FAIR INDICATES FEW OR NO CLOUDS BELOW 12,000 FEET WITH NO
SIGNIFICANT WEATHER AND/OR OBSTRUCTIONS TO VISIBILITY.

AZZ001>003-036-301600-
NORTHWEST ARIZONA

CITY           SKY/WX    TMP DP  RH WIND       PRES   REMARKS
BULLHEAD CITY  SUNNY     72  18  13 NE12      30.10R
KINGMAN        SUNNY     59  18  20 CALM      30.18R
$$

AZZ004>008-015-016-018-301600-
NORTH CENTRAL ARIZONA

CITY           SKY/WX    TMP DP  RH WIND       PRES   REMARKS
GRAND CANYON   SUNNY     47  15  27 VRB3      30.23S
WILLIAMS       SUNNY     45  14  29 E5        30.23R
PRESCOTT       SUNNY     50  18  28 N6        30.19R
FLAGSTAFF      SUNNY     41  14  33 CALM      30.22R
PAYSON         SUNNY     54  18  24 NE12      30.20S
PAGE           SUNNY     52  19  27 VRB5      30.20R
$$

AZZ009>014-017-301600-
NORTHEAST ARIZONA

CITY           SKY/WX    TMP DP  RH WIND       PRES   REMARKS
WINSLOW        SUNNY     48  17  29 NW10      30.20R
SAINT JOHNS    SUNNY     45  21  38 NW14      30.17R
WINDOW ROCK    SUNNY     43  18  36 N15G21    30.16R
SHOW LOW       SUNNY     43  14  31 NW10      30.21R
$$

AZZ540-542>544-546-548-301600-
GREATER PHOENIX AREA

CITY           SKY/WX    TMP DP  RH WIND       PRES   REMARKS
PHOENIX        SUNNY     69  23  17 E10       30.04R
BUCKEYE        SUNNY     68  18  14 N6        30.06R
GLENDALE       SUNNY     68  28  22 CALM      30.07R
LUKE AFB       SUNNY     68  28  21 N5        30.05R
DEER VALLEY    SUNNY     69  18  14 N6        30.05R
SCOTTSDALE     SUNNY     67  26  21 SW3       30.06S
MESA-FALCON    SUNNY    N/A N/A N/A N12       30.06R
MESA-GATEWAY   SUNNY     64  27  24 S6        30.07S
CHANDLER       SUNNY     64  27  24 E7        30.05S
$$

AZZ539-553-301600-
SOUTHWEST MARICOPA COUNTY AND PINAL COUNTY

CITY           SKY/WX    TMP DP  RH WIND       PRES   REMARKS
CASA GRANDE    FAIR      61  22  22 E5        30.07R
GILA BEND      FAIR      67  15  13 CALM      30.04S
$$

AZZ503-504-507>509-301600-
SOUTHEAST ARIZONA

CITY           SKY/WX    TMP DP  RH WIND       PRES   REMARKS
TUCSON         SUNNY     60  16  18 SE8       30.11S
DAVIS-MONTHAN  SUNNY     62  18  18 SE6       30.10S
NOGALES        SUNNY     56  15  20 SW3       30.13S
SIERRA VISTA   SUNNY     59  16  18 CALM      30.16S
DOUGLAS        SUNNY     53  13  20 VRB5      30.14F
SAFFORD        SUNNY     53  21  28 CALM      30.10F
$$

AZZ532-301600-
SOUTHWEST ARIZONA

CITY           SKY/WX    TMP DP  RH WIND       PRES   REMARKS
YUMA           SUNNY     71  22  15 N3        30.03R
$$

CAZ041-043-047-048-061-525>527-560>570-301600-
SOUTHERN CALIFORNIA

CITY           SKY/WX    TMP DP  RH WIND       PRES   REMARKS
DOWNTOWN L.A.  SUNNY     72  27  18 CALM      30.06R
L.A. AIRPORT   SUNNY     66  34  30 E6        30.07R
SAN DIEGO      SUNNY     67  35  30 NW6       30.08R
BURBANK        SUNNY     64  26  23 CALM      30.09R
ONTARIO        SUNNY     67  20  16 NE3       30.09R
RIVERSIDE      SUNNY     62  30  29 NE5       30.09R
PALM SPRINGS   SUNNY     73  22  14 NW8       30.07R
EL CENTRO NAS  SUNNY     69  20  15 W6        30.05R
IMPERIAL       SUNNY     67  32  27 W6        30.03R
BLYTHE         SUNNY     69  19  15 CALM      30.06R
NEEDLES        SUNNY     73  18  12 N7        30.11R
$$

NVZ020-UTZ003-301600-
SOUTHERN NEVADA-UTAH

CITY           SKY/WX    TMP DP  RH WIND       PRES   REMARKS
LAS VEGAS      MOSUNNY   66  13  12 NE3       30.16R
SALT LAKE CITY CLOUDY    46  31  55 SE12      30.19S
$$

NMZ009-TXZ055-301600-
NEW MEXICO-WEST TEXAS

CITY           SKY/WX    TMP DP  RH WIND       PRES   REMARKS
ALBUQUERQUE    MOSUNNY   40  34  79 VRB3      30.08R
EL PASO        SUNNY     54  28  36 SW10      30.08R
$$


........................KEY........................
SKY/WX - SKY CONDITION/WEATHER
TMP    - TEMPERATURE IN FAHRENHEIT
DP     - DEW POINT IN FAHRENHEIT
RH     - RELATIVE HUMIDITY IN PERCENT
WIND   - DIRECTION AND SPEED IN MILES PER HOUR (MPH)
VRB    - VARIABLE WIND DIRECTION
PRES   - MEAN SEA LEVEL PRESSURE IN INCHES OF MERCURY
         F - FALLING PRESSURE   R - RISING PRESSURE
         S - STEADY PRESSURE
VSB    - VISIBILITY IN MILES
HX     - HEAT INDEX IN FAHRENHEIT
WCI    - WIND CHILL INDEX IN FAHRENHEIT
TC     - TEMPERATURE IN CELSIUS WHICH IS ALSO KNOWN AS
         TEMPERATURE IN CENTIGRADE
AFB    - AIR FORCE BASE
         LUKE AFB IS LUKE AIR FORCE BASE
         DAVIS-MONTHAN IS DAVIS-MONTHAN AIR FORCE BASE
NAS    - NAVAL AIR STATION
         EL CENTRO NAS IS EL CENTRO NAVAL AIR STATION
N/A    - NOT AVAILABLE




USA.gov is the U.S. government's official web portal to all federal, state and local government web resources and services.